Weather History for Daviess Cnty AP, Washington,, IN

Change the Weather History Date:

Friday, January 31, 2014

  Actual Average (KLWV) Record (KLWV)
Temperature  
Mean Temperature 37 °F 32 °F  
Max Temperature 42 °F 40 °F 61 °F (2002)
Min Temperature 32 °F 24 °F -11 °F (2004)
Degree Days  
Heating Degree Days 28 33  
Month to date heating degree days 1049  
Since 1 July heating degree days 2851  
Cooling Degree Days 0 0  
Month to date cooling degree days 0  
Year to date cooling degree days 0  
Moisture  
Dew Point 17 °F    
Average Humidity 49    
Maximum Humidity 100    
Minimum Humidity 32    
Precipitation  
Precipitation 0.00 in 0.07 in 2.56 in (1982)
Month to date precipitation 2.38  
Year to date precipitation 2.38  
Sea Level Pressure  
Sea Level Pressure 30.06 in    
Wind  
Wind Speed 8 mph (SSE)    
Max Wind Speed 15 mph    
Max Gust Speed 17 mph    
Visibility 9 miles    
Events Rain    
T = Trace of Precipitation, MM = Missing Value Source: NWS Daily Summary

Daily Weather History Graph

Daily Weather History Graph

Search for Another Location

Airport:

Trip Planner

Search our weather history database for the weather conditions in past years. The results will help you decide how hot, cold, wet, or windy it might be!

Date:

Astronomy

Jan. 31, 2014 Rise Set
Actual Time 7:55 AM EST 6:09 PM EST
Civil Twilight 7:27 AM EST 6:37 PM EST
Nautical Twilight 6:55 AM EST 7:09 PM EST
Astronomical Twilight 6:24 AM EST 7:40 PM EST
Moon 8:05 AM EST (1/31) 7:31 PM EST (1/31)
Length of Visible Light 11h 10m
Length of Day
10h 14m
New Moon, 1% of the Moon is Illuminated
Jan 31
New Moon
Feb 6
First Quarter
Feb 14
Full
Feb 22
Last Quarter
Mar 1
New

Hourly Weather History & Observations

Time (EST) Temp. Windchill Dew Point Humidity Pressure Visibility Wind Dir Wind Speed Gust Speed Precip Events Conditions
12:15 AM 36.0 °F 26.7 °F 8.4 °F 32% 30.00 in 10.0 mi SSW 15.0 mph - N/A   Overcast
12:35 AM 36.1 °F 28.2 °F 8.8 °F 32% 30.00 in 10.0 mi SW 11.5 mph - N/A   Overcast
12:55 AM 36.5 °F 29.2 °F 9.1 °F 32% 30.00 in 10.0 mi SW 10.4 mph 17.3 mph N/A   Overcast
1:15 AM 36.0 °F 28.0 °F 9.5 °F 33% 30.00 in 10.0 mi SW 11.5 mph - N/A   Overcast
1:35 AM 36.0 °F 28.0 °F 9.5 °F 33% 30.01 in 10.0 mi SSW 11.5 mph 17.3 mph N/A   Overcast
1:55 AM 35.8 °F 28.8 °F 9.5 °F 34% 30.00 in 10.0 mi SSW 9.2 mph - N/A   Overcast
2:15 AM 35.6 °F 29.2 °F 9.9 °F 34% 29.99 in 10.0 mi SSW 8.1 mph - N/A   Overcast
2:35 AM 35.6 °F 29.9 °F 10.4 °F 35% 30.00 in 10.0 mi SSW 6.9 mph - N/A   Overcast
2:55 AM 35.2 °F 28.1 °F 10.8 °F 36% 30.00 in 10.0 mi SSW 9.2 mph - N/A   Overcast
3:15 AM 35.2 °F 29.5 °F 10.8 °F 36% 30.01 in 10.0 mi SSW 6.9 mph - N/A   Overcast
3:35 AM 34.9 °F 28.3 °F 10.9 °F 37% 30.00 in 10.0 mi SSW 8.1 mph - N/A   Overcast
3:55 AM 34.7 °F 26.9 °F 10.6 °F 37% 30.01 in 10.0 mi SSW 10.4 mph - N/A   Overcast
4:15 AM 35.1 °F 28.6 °F 10.0 °F 35% 30.03 in 10.0 mi SSW 8.1 mph - N/A   Overcast
4:35 AM 34.9 °F 27.1 °F 10.0 °F 36% 30.03 in 10.0 mi SW 10.4 mph - N/A   Overcast
4:55 AM 34.7 °F 26.9 °F 10.2 °F 36% 30.04 in 10.0 mi SSW 10.4 mph - N/A   Overcast
5:15 AM 34.7 °F 28.1 °F 10.4 °F 37% 30.04 in 10.0 mi SW 8.1 mph - N/A   Overcast
5:35 AM 34.7 °F 28.8 °F 10.4 °F 37% 30.04 in 10.0 mi SSW 6.9 mph - N/A   Overcast
5:55 AM 34.2 °F 28.2 °F 10.9 °F 38% 30.04 in 10.0 mi SSW 6.9 mph - N/A   Overcast
6:15 AM 34.2 °F 29.0 °F 10.9 °F 38% 30.05 in 10.0 mi South 5.8 mph - N/A   Overcast
6:35 AM 33.3 °F 28.9 °F 12.6 °F 42% 30.05 in 10.0 mi SSE 4.6 mph - N/A   Overcast
6:55 AM 33.1 °F 27.7 °F 12.7 °F 43% 30.06 in 10.0 mi South 5.8 mph - N/A   Overcast
7:15 AM 32.9 °F 28.5 °F 13.1 °F 44% 30.06 in 10.0 mi South 4.6 mph - N/A   Overcast
7:35 AM 32.5 °F 26.2 °F 13.3 °F 45% 30.07 in 10.0 mi South 6.9 mph - N/A   Overcast
7:55 AM 32.0 °F 25.6 °F 13.1 °F 46% 30.07 in 10.0 mi SSE 6.9 mph - N/A   Overcast
8:15 AM 32.2 °F 27.7 °F 13.3 °F 46% 30.08 in 10.0 mi SSE 4.6 mph - N/A   Overcast
8:35 AM 32.2 °F 26.7 °F 13.5 °F 46% 30.09 in 10.0 mi SSE 5.8 mph - N/A   Overcast
8:55 AM 32.4 °F 24.6 °F 12.9 °F 45% 30.09 in 10.0 mi South 9.2 mph - N/A   Overcast
9:15 AM 32.9 °F 24.7 °F 12.2 °F 42% 30.10 in 10.0 mi South 10.4 mph - N/A   Overcast
9:35 AM 33.3 °F 25.7 °F 11.8 °F 41% 30.11 in 10.0 mi South 9.2 mph - N/A   Overcast
9:55 AM 34.2 °F 27.5 °F 12.2 °F 40% 30.11 in 10.0 mi South 8.1 mph - N/A   Overcast
10:15 AM 35.1 °F 27.9 °F 11.3 °F 37% 30.12 in 10.0 mi South 9.2 mph - N/A   Overcast
10:35 AM 36.3 °F 30.8 °F 11.5 °F 36% 30.12 in 10.0 mi SSW 6.9 mph - N/A   Overcast
10:55 AM 37.8 °F 32.5 °F 11.7 °F 34% 30.12 in 10.0 mi South 6.9 mph - N/A   Overcast
11:15 AM 38.7 °F 36.3 °F 11.5 °F 33% 30.12 in 10.0 mi SSW 3.5 mph - N/A   Scattered Clouds
11:35 AM 38.5 °F 36.1 °F 11.5 °F 33% 30.12 in 10.0 mi South 3.5 mph - N/A   Clear
11:55 AM 38.8 °F - 11.3 °F 32% 30.12 in 10.0 mi Calm Calm - N/A   Clear
12:15 PM 39.0 °F - 11.8 °F 33% 30.12 in 10.0 mi Calm Calm - N/A   Scattered Clouds
12:35 PM 39.2 °F - 12.4 °F 33% 30.11 in 10.0 mi Calm Calm - N/A   Scattered Clouds
12:55 PM 39.2 °F - 12.2 °F 33% 30.10 in 10.0 mi Calm Calm - N/A   Mostly Cloudy
1:15 PM 39.7 °F 36.5 °F 12.6 °F 33% 30.10 in 10.0 mi ESE 4.6 mph - N/A   Mostly Cloudy
1:35 PM 39.7 °F 37.6 °F 12.2 °F 32% 30.08 in 10.0 mi SSE 3.5 mph - N/A   Mostly Cloudy
1:55 PM 40.1 °F - 12.6 °F 33% 30.08 in 10.0 mi Calm Calm - N/A   Mostly Cloudy
2:15 PM 40.3 °F 38.2 °F 13.3 °F 33% 30.08 in 10.0 mi SE 3.5 mph - N/A   Scattered Clouds
2:35 PM 40.5 °F 38.4 °F 12.9 °F 33% 30.08 in 10.0 mi ESE 3.5 mph - N/A   Mostly Cloudy
2:55 PM 41.5 °F 38.6 °F 13.6 °F 32% 30.07 in 10.0 mi ESE 4.6 mph - N/A   Mostly Cloudy
3:15 PM 41.5 °F 38.6 °F 14.0 °F 33% 30.06 in 10.0 mi ESE 4.6 mph - N/A   Scattered Clouds
3:35 PM 42.1 °F 38.4 °F 14.4 °F 33% 30.06 in 10.0 mi ESE 5.8 mph - N/A   Scattered Clouds
3:55 PM 41.9 °F 39.0 °F 15.6 °F 35% 30.06 in 10.0 mi ESE 4.6 mph - N/A   Mostly Cloudy
4:15 PM 41.5 °F 39.6 °F 18.1 °F 39% 30.06 in 10.0 mi East 3.5 mph - N/A   Overcast
4:35 PM 41.0 °F 37.1 °F 20.3 °F 44% 30.06 in 10.0 mi SSE 5.8 mph - N/A   Overcast
4:55 PM 40.3 °F 37.1 °F 21.4 °F 47% 30.06 in 10.0 mi SE 4.6 mph - N/A   Overcast
5:15 PM 40.1 °F - 20.8 °F 46% 30.06 in 10.0 mi Calm Calm - N/A   Overcast
5:35 PM 39.0 °F 35.7 °F 22.5 °F 52% 30.05 in 10.0 mi East 4.6 mph - N/A   Overcast
5:55 PM 39.2 °F 35.9 °F 21.6 °F 49% 30.05 in 10.0 mi East 4.6 mph - N/A   Overcast
6:15 PM 38.5 °F 34.1 °F 21.7 °F 51% 30.04 in 10.0 mi East 5.8 mph - N/A   Overcast
6:35 PM 37.8 °F 33.3 °F 22.5 °F 54% 30.05 in 10.0 mi East 5.8 mph - N/A   Overcast
6:55 PM 36.9 °F 32.2 °F 23.0 °F 57% 30.05 in 10.0 mi East 5.8 mph - N/A   Overcast
7:15 PM 36.5 °F - 23.9 °F 60% 30.05 in 10.0 mi Calm Calm - N/A   Overcast
7:35 PM 38.1 °F 32.9 °F 21.4 °F 51% 30.05 in 10.0 mi SE 6.9 mph - N/A   Overcast
7:55 PM 39.2 °F 31.6 °F 23.5 °F 53% 30.06 in 10.0 mi South 12.7 mph - N/A   Overcast
8:15 PM 36.3 °F 28.4 °F 32.5 °F 86% 30.07 in 10.0 mi South 11.5 mph - N/A   Overcast
8:35 PM 35.2 °F 30.3 °F 34.0 °F 95% 30.07 in 4.0 mi South 5.8 mph - N/A   Heavy Drizzle
8:55 PM 34.7 °F 31.8 °F 34.0 °F 97% 30.07 in 2.5 mi South 3.5 mph - N/A   Heavy Drizzle
9:15 PM 34.7 °F 30.6 °F 34.2 °F 98% 30.06 in 2.5 mi SSE 4.6 mph - N/A   Drizzle
9:35 PM 34.0 °F - 33.8 °F 99% 30.07 in 2.0 mi Calm Calm - N/A Rain Rain
9:55 PM 33.8 °F - 33.4 °F 99% 30.06 in 1.0 mi Calm Calm - N/A   Overcast
10:15 PM 33.8 °F 29.6 °F 33.8 °F 100% 30.05 in 1.5 mi East 4.6 mph - N/A   Overcast
10:35 PM 34.2 °F 31.2 °F 34.2 °F 100% 30.05 in 2.5 mi East 3.5 mph - N/A   Overcast
10:55 PM 33.8 °F 29.6 °F 33.8 °F 100% 30.04 in 1.5 mi East 4.6 mph - N/A Rain Light Rain
11:15 PM 33.8 °F 29.6 °F 33.8 °F 100% 30.03 in 1.5 mi ESE 4.6 mph - N/A Rain Light Rain
11:35 PM 34.0 °F 28.8 °F 34.0 °F 100% 30.02 in 2.0 mi ESE 5.8 mph - N/A Rain Light Rain
11:55 PM 33.8 °F 29.6 °F 33.8 °F 100% 30.03 in 1.8 mi ESE 4.6 mph - N/A Rain Light Rain